Weather Roundup
Issued by NWS Springfield, MO

Home | Current Version | Previous Version | Text Only | Print | Product List | Glossary On
Versions: 1 2 3 4 5 6 7 8 9 10 11 12 13 14 15 16 17 18 19 20 21 22 23 24 25 26 27 28 29 30 31 32 33 34 35 36 37 38 39 40 41 42 43 44 45 46 47 48 49 50
000
NZUS99 KSGF 272359
HRRSGF

HOURLY WEATHER
NATIONAL WEATHER SERVICE SPRINGFIELD MO
600 PM CST TUE JAN 27 2015

......SGF CWA......

CITY           SKY/WX    TMP DP  RH WIND       PRES   REMARKS
SPRINGFIELD    CLEAR     51  27  39 E3        30.10F
6HR MIN TEMP:  51; 6HR MAX TEMP:  60;

JOPLIN         CLEAR     59  27  29 SE3       30.08F
6HR MIN TEMP:  54; 6HR MAX TEMP:  64;

WEST PLAINS    CLEAR     48  27  44 CALM      30.15R
6HR MIN TEMP:  47; 6HR MAX TEMP:  59;

ROLLA          CLEAR     41  30  65 CALM      30.14R
OSAGE BEACH    CLEAR     48  28  46 E5        30.14F
BRANSON        CLEAR     50  27  40 CALM      30.12F

......SURROUNDING SGF CWA......

CITY           SKY/WX    TMP DP  RH WIND       PRES   REMARKS
CHANUTE        CLEAR     53  35  50 SE8       30.06F
PARSONS        CLEAR     58  35  42 SE5       30.07S
COFFEYVILLE    CLEAR     58  35  42 SE8       30.06F
EMPORIA        CLEAR     55  34  45 SE13      30.02F
SILOAM SPRINGS CLEAR     61  27  27 S3        30.11S
HARRISON AR    CLEAR     56  26  31 CALM      30.11S
NEAR YELLVILLE CLEAR     55  28  35 CALM      30.12R

......KANSAS AND MISSOURI......

CITY           SKY/WX    TMP DP  RH WIND       PRES   REMARKS
KANSAS CTY INT CLEAR     50  30  46 E9        30.07F
DOWNTOWN KC    CLEAR     53  31  42 SE9       30.08S
COLUMBIA       CLEAR     44  31  60 E7        30.16R
SEDALIA        CLEAR     46  31  55 E6        30.14S
ST JOSEPH        N/A     48  31  51 SE9       30.08R
ST LOUIS       PTCLDY    37  29  72 NE12      30.21R WCI  29
SPIRIT OF STL  CLEAR     39  30  70 E5        30.19R
KIRKSVILLE     CLEAR     39  32  76 E5        30.17R
WICHITA        PTCLDY    65  37  35 S13       29.99F
TOPEKA         CLEAR     49  31  49 E8        30.05S
OLATHE         CLEAR     50  32  50 SE7       30.07F

......TENNESSEE......

CITY           SKY/WX    TMP DP  RH WIND       PRES   REMARKS
MEMPHIS        CLEAR     49  34  56 N9        30.17R
NASHVILLE      CLOUDY    38  29  70 NW10      30.18R WCI  31

......ARKANSAS.......

CITY           SKY/WX    TMP DP  RH WIND       PRES   REMARKS
FAYETTEVILLE   CLEAR     53  30  41 CALM      30.10F
FT SMITH       CLEAR     62  27  26 CALM      30.09S
LITTLE ROCK    CLEAR     57  35  43 SE7       30.13R

......OKLAHOMA.......

CITY           SKY/WX    TMP DP  RH WIND       PRES   REMARKS
TULSA          PTCLDY    62  36  37 E7        30.05S
PONCA CITY     CLEAR     69  35  28 S5        30.02F
MCALESTER      PTCLDY    69  34  27 S5        30.08F
OKLAHOMA CITY  MOCLDY    64  34  32 S8        30.06F

......IOWA............

CITY           SKY/WX    TMP DP  RH WIND       PRES   REMARKS
DES MOINES     PTCLDY    39  30  70 E12       30.15R WCI  32
QUAD CITIES    CLOUDY    28  22  78 E7        30.24S WCI  21

......ILLINOIS........

CITY           SKY/WX    TMP DP  RH WIND       PRES   REMARKS
QUINCY         CLEAR     32  27  81 E7        30.20R WCI  26
CHICAGO        PTCLDY    26  15  63 NE8       30.23R WCI  18




USA.gov is the U.S. government's official web portal to all federal, state and local government web resources and services.